Livermore, CA

7:36 AM PST on December 18, 2017 (GMT -0800)
Livermore Municipal

Weather History for KLVK - October, 2013

Change the Weather History Date:

Thursday, October 24, 2013

  Actual Average Record
Temperature  
Mean Temperature 57 °F 61 °F  
Max Temperature 64 °F 74 °F 91 °F (2017)
Min Temperature 50 °F 48 °F 31 °F (1956)
Degree Days  
Heating Degree Days 8 5  
Month to date heating degree days 33 64  
Since 1 July heating degree days 37 88  
Cooling Degree Days 0 0  
Month to date cooling degree days 30 38  
Year to date cooling degree days 1039 827  
Growing Degree Days 7 (Base 50)    
Moisture  
Dew Point 48 °F    
Average Humidity 73    
Maximum Humidity 89    
Minimum Humidity 56    
Precipitation  
Precipitation 0.00 in 0.04 in 0.53 in (1998)
Month to date precipitation 0.00 0.61  
Year to date precipitation 2.59 10.74  
Since 1 July precipitation 0.47  
Sea Level Pressure  
Sea Level Pressure 30.03 in    
Wind  
Wind Speed 5 mph (West)    
Max Wind Speed 16 mph    
Max Gust Speed 21 mph    
Visibility 8 miles    
Events      
T = Trace of Precipitation, MM = Missing Value Source: NWS Daily Summary

Daily Weather History Graph

Daily Weather History Graph

Search for Another Location

Airport or City:

Trip Planner

Search our weather history database for the weather conditions in past years. The results will help you decide how hot, cold, wet, or windy it might be!

Date:

Astronomy

Oct. 24, 2013 Rise Set
Actual Time 7:24 AM PDT 6:17 PM PDT
Civil Twilight 6:57 AM PDT 6:44 PM PDT
Nautical Twilight 6:27 AM PDT 7:14 PM PDT
Astronomical Twilight 5:56 AM PDT 7:45 PM PDT
Moon 10:49 PM PDT (10/24) 12:26 PM PDT (10/24)
Length of Visible Light 11h 46m
Length of Day
10h 52m
Waning Gibbous, 70% of the Moon is Illuminated
Oct 24
Waning Gibbous
Oct 26
Last Quarter
Nov 3
New
Nov 9
First Quarter
Nov 17
Full

Hourly Weather History & Observations

Time (PDT) Temp. Dew Point Humidity Pressure Visibility Wind Dir Wind Speed Gust Speed Precip Events Conditions
12:36 AM 51.8 °F 48.2 °F 88% 29.98 in 5.0 mi WNW 8.1 mph - N/A   Partly Cloudy
12:53 AM 51.1 °F 48.9 °F 92% 29.97 in 5.0 mi West 6.9 mph - N/A   Scattered Clouds
1:01 AM 51.8 °F 48.2 °F 88% 29.98 in 5.0 mi West 6.9 mph - N/A   Mostly Cloudy
1:53 AM 53.1 °F 50.0 °F 89% 29.97 in 5.0 mi SW 3.5 mph - N/A   Overcast
2:53 AM 53.1 °F 50.0 °F 89% 29.97 in 5.0 mi SSW 4.6 mph - N/A   Overcast
3:53 AM 53.1 °F 48.9 °F 86% 29.97 in 4.0 mi Calm Calm - N/A   Overcast
4:53 AM 53.1 °F 48.9 °F 86% 29.98 in 5.0 mi West 3.5 mph - N/A   Overcast
5:53 AM 53.1 °F 48.9 °F 86% 29.99 in 5.0 mi Calm Calm - N/A   Overcast
6:53 AM 52.0 °F 48.0 °F 86% 30.00 in 6.0 mi South 4.6 mph - N/A   Overcast
7:53 AM 53.1 °F 48.0 °F 83% 30.01 in 6.0 mi Calm Calm - N/A   Haze
8:53 AM 53.1 °F 48.0 °F 83% 30.03 in 5.0 mi Calm Calm - N/A   Haze
9:53 AM 54.0 °F 48.0 °F 80% 30.05 in 7.0 mi Calm Calm - N/A   Overcast
10:24 AM 53.6 °F 48.2 °F 82% 30.05 in 8.0 mi SW 4.6 mph - N/A   Overcast
10:53 AM 55.9 °F 48.0 °F 75% 30.05 in 8.0 mi Calm Calm - N/A   Overcast
11:31 AM 60.8 °F 48.2 °F 63% 30.06 in 10.0 mi WNW 6.9 mph - N/A   Mostly Cloudy
11:53 AM 60.1 °F 48.0 °F 64% 30.06 in 10.0 mi West 15.0 mph - N/A   Mostly Cloudy
12:19 PM 60.8 °F 48.2 °F 63% 30.07 in 10.0 mi West 15.0 mph - N/A   Partly Cloudy
12:53 PM 60.1 °F 48.0 °F 64% 30.06 in 10.0 mi WNW 12.7 mph - N/A   Partly Cloudy
1:53 PM 61.0 °F 48.0 °F 62% 30.04 in 10.0 mi West 12.7 mph - N/A   Clear
2:53 PM 62.1 °F 46.9 °F 58% 30.02 in 10.0 mi WNW 11.5 mph - N/A   Clear
3:53 PM 63.0 °F 46.9 °F 56% 30.01 in 10.0 mi WNW 9.2 mph - N/A   Clear
4:53 PM 63.0 °F 46.0 °F 54% 30.01 in 10.0 mi WNW 9.2 mph - N/A   Clear
5:53 PM 61.0 °F 48.0 °F 62% 30.02 in 10.0 mi WNW 9.2 mph - N/A   Clear
6:53 PM 57.0 °F 48.0 °F 72% 30.04 in 10.0 mi WNW 6.9 mph - N/A   Clear
7:53 PM 55.9 °F 46.9 °F 72% 30.04 in 10.0 mi Calm Calm - N/A   Clear
8:53 PM 55.0 °F 46.9 °F 74% 30.05 in 10.0 mi NW 3.5 mph - N/A   Clear
9:53 PM 53.1 °F 46.0 °F 77% 30.08 in 10.0 mi West 4.6 mph - N/A   Clear
10:53 PM 53.1 °F 48.0 °F 83% 30.10 in 10.0 mi West 8.1 mph - N/A   Clear
11:53 PM 53.1 °F 48.0 °F 83% 30.10 in 10.0 mi Calm Calm - N/A   Clear